SDG075 LMML-LICC

Flight info

Callsign SDG075
Flight time 0h 34m
Altitude 12000
Route GZO N982 NELDA
Aircraft B738/M-SDG/L

Departure

Time 2026-05-04 13:39
Airport Malta International Airport (LMML)

Arrival

Time 2026-05-04 14:14
Airport Catania-Fontanarossa Airport (LICC)
Time Latitude Longitude Altitude Speed Heading
2026-05-04 13:36 35.85661 14.48102 261 ft 0 kts 269°
2026-05-04 13:38 35.85660 14.48070 262 ft 13 kts 270°
2026-05-04 13:38 35.85662 14.47953 263 ft 14 kts 230°
2026-05-04 13:38 35.85576 14.47974 262 ft 14 kts 136°
2026-05-04 13:38 35.85374 14.48220 261 ft 90 kts 135°
2026-05-04 13:39 35.84702 14.49052 378 ft 172 kts 136°
2026-05-04 13:39 35.83827 14.50144 1659 ft 174 kts 136°
2026-05-04 13:39 35.82966 14.51196 3054 ft 179 kts 148°
2026-05-04 13:39 35.81696 14.51543 3713 ft 206 kts 190°
2026-05-04 13:40 35.80399 14.50598 4076 ft 234 kts 232°
2026-05-04 13:40 35.79587 14.48813 4716 ft 244 kts 242°
2026-05-04 13:40 35.78763 14.46998 4963 ft 247 kts 240°
2026-05-04 13:40 35.77870 14.45150 4989 ft 248 kts 239°
2026-05-04 13:41 35.76983 14.43352 4996 ft 249 kts 239°
2026-05-04 13:41 35.76077 14.41524 5279 ft 253 kts 239°
2026-05-04 13:41 35.75403 14.39530 6157 ft 254 kts 258°
2026-05-04 13:42 35.76030 14.35166 7744 ft 271 kts 303°
2026-05-04 13:42 35.77314 14.33485 8894 ft 272 kts 324°
2026-05-04 13:42 35.79016 14.32417 9936 ft 278 kts 338°
2026-05-04 13:42 35.80845 14.31549 10807 ft 290 kts 338°
2026-05-04 13:43 35.82826 14.30621 11089 ft 320 kts 338°
2026-05-04 13:43 35.84999 14.29597 11402 ft 346 kts 338°
2026-05-04 13:43 35.87280 14.28512 12005 ft 354 kts 338°
2026-05-04 13:43 35.89593 14.27403 12183 ft 365 kts 337°
2026-05-04 13:44 35.92030 14.26223 12203 ft 386 kts 337°
2026-05-04 13:44 35.94549 14.24999 12196 ft 391 kts 337°
2026-05-04 13:44 35.97086 14.23767 12182 ft 391 kts 337°
2026-05-04 13:44 35.99613 14.22538 12179 ft 391 kts 337°
2026-05-04 13:45 36.02153 14.21322 12178 ft 392 kts 340°
2026-05-04 13:45 36.04840 14.20775 12185 ft 396 kts
2026-05-04 13:45 36.07574 14.21298 12197 ft 399 kts 11°
2026-05-04 13:45 36.10292 14.21991 12172 ft 399 kts
2026-05-04 13:46 36.12980 14.22620 12172 ft 398 kts
2026-05-04 13:46 36.15707 14.23240 12161 ft 398 kts
2026-05-04 13:46 36.18427 14.23851 12162 ft 397 kts
2026-05-04 13:46 36.21143 14.24460 12167 ft 397 kts
2026-05-04 13:47 36.23862 14.25072 12170 ft 397 kts
2026-05-04 13:47 36.26583 14.25685 12168 ft 397 kts
2026-05-04 13:47 36.29303 14.26299 12169 ft 398 kts
2026-05-04 13:47 36.32025 14.26916 12171 ft 398 kts
2026-05-04 13:48 36.34753 14.27534 12165 ft 398 kts
2026-05-04 13:48 36.37477 14.28152 12165 ft 398 kts
2026-05-04 13:48 36.40203 14.28771 12168 ft 398 kts
2026-05-04 13:48 36.42927 14.29390 12162 ft 398 kts
2026-05-04 13:49 36.45654 14.30010 12163 ft 398 kts
2026-05-04 13:49 36.48379 14.30630 12164 ft 398 kts
2026-05-04 13:49 36.51102 14.31250 12160 ft 398 kts
2026-05-04 13:49 36.53825 14.31869 12156 ft 398 kts
2026-05-04 13:50 36.56551 14.32488 12160 ft 398 kts
2026-05-04 13:50 36.59277 14.33108 12156 ft 398 kts
2026-05-04 13:50 36.62000 14.33728 12154 ft 398 kts
2026-05-04 13:50 36.64727 14.34349 12156 ft 398 kts
2026-05-04 13:51 36.67447 14.34970 12156 ft 398 kts
2026-05-04 13:51 36.70128 14.35583 12140 ft 384 kts
2026-05-04 13:51 36.72715 14.36175 12147 ft 373 kts
2026-05-04 13:51 36.75257 14.36756 12159 ft 371 kts
2026-05-04 13:52 36.80369 14.37923 11780 ft 375 kts
2026-05-04 13:52 36.82922 14.38508 11304 ft 370 kts
2026-05-04 13:52 36.85366 14.39096 11327 ft 347 kts 12°
2026-05-04 13:53 36.87499 14.40335 11297 ft 332 kts 34°
2026-05-04 13:53 36.89258 14.42051 11280 ft 309 kts 36°
2026-05-04 13:53 36.90899 14.43625 11265 ft 287 kts 35°
2026-05-04 13:54 36.93952 14.46511 11253 ft 274 kts 35°
2026-05-04 13:54 36.95461 14.47933 11262 ft 277 kts 34°
2026-05-04 13:54 36.98544 14.50841 11272 ft 277 kts 34°
2026-05-04 13:55 37.00073 14.52288 11182 ft 276 kts 34°
2026-05-04 13:55 37.03176 14.55223 10700 ft 279 kts 35°
2026-05-04 13:55 37.04714 14.56678 10467 ft 276 kts 35°
2026-05-04 13:56 37.06240 14.58125 10258 ft 273 kts 35°
2026-05-04 13:56 37.07739 14.59548 10207 ft 269 kts 35°
2026-05-04 13:56 37.10667 14.62323 10188 ft 260 kts 35°
2026-05-04 13:57 37.12102 14.63685 10177 ft 258 kts 35°
2026-05-04 13:57 37.13524 14.65034 10171 ft 256 kts 35°
2026-05-04 13:58 37.17820 14.68994 10163 ft 254 kts 22°
2026-05-04 13:58 37.21368 14.69057 9219 ft 264 kts 351°
2026-05-04 13:58 37.23203 14.68782 8697 ft 266 kts 352°
2026-05-04 13:59 37.24994 14.68542 8504 ft 254 kts 353°
2026-05-04 13:59 37.26704 14.68312 8377 ft 241 kts 353°
2026-05-04 13:59 37.29966 14.67872 8152 ft 234 kts 353°
2026-05-04 14:00 37.31511 14.67378 8018 ft 233 kts 328°
2026-05-04 14:00 37.32986 14.63986 7812 ft 232 kts 270°
2026-05-04 14:00 37.32829 14.61960 7711 ft 235 kts 263°
2026-05-04 14:01 37.32624 14.59902 7482 ft 237 kts 264°
2026-05-04 14:01 37.32432 14.57863 7347 ft 233 kts 264°
2026-05-04 14:01 37.32068 14.53867 7118 ft 230 kts 264°
2026-05-04 14:02 37.31885 14.51862 7002 ft 231 kts 264°
2026-05-04 14:02 37.31731 14.49849 6880 ft 231 kts 271°
2026-05-04 14:02 37.32175 14.47944 6737 ft 230 kts 306°
2026-05-04 14:02 37.33396 14.46695 6662 ft 229 kts 336°
2026-05-04 14:03 37.34938 14.46216 6514 ft 230 kts 352°
2026-05-04 14:03 37.36531 14.45996 6382 ft 230 kts 354°
2026-05-04 14:03 37.38121 14.45795 6259 ft 229 kts 354°
2026-05-04 14:03 37.39709 14.45843 6091 ft 231 kts 17°
2026-05-04 14:04 37.41667 14.48686 5919 ft 220 kts 77°
2026-05-04 14:04 37.41883 14.50562 5779 ft 209 kts 84°
2026-05-04 14:04 37.42024 14.52330 5661 ft 197 kts 84°
2026-05-04 14:05 37.42291 14.55603 5486 ft 186 kts 84°
2026-05-04 14:05 37.42426 14.57222 5424 ft 187 kts 84°
2026-05-04 14:05 37.42566 14.58856 5344 ft 188 kts 83°
2026-05-04 14:06 37.42708 14.60497 5262 ft 189 kts 84°
2026-05-04 14:06 37.42850 14.62137 5189 ft 189 kts 83°
2026-05-04 14:06 37.42995 14.63783 5109 ft 189 kts 83°
2026-05-04 14:06 37.43140 14.65431 5028 ft 190 kts 84°
2026-05-04 14:07 37.43287 14.67106 4877 ft 194 kts 84°
2026-05-04 14:07 37.43434 14.68784 4695 ft 191 kts 84°
2026-05-04 14:07 37.43579 14.70437 4538 ft 189 kts 84°
2026-05-04 14:07 37.43721 14.72077 4370 ft 188 kts 84°
2026-05-04 14:08 37.43867 14.73709 4222 ft 188 kts 84°
2026-05-04 14:08 37.44012 14.75347 4073 ft 186 kts 85°
2026-05-04 14:08 37.44147 14.76934 3875 ft 178 kts 85°
2026-05-04 14:08 37.44282 14.78448 3760 ft 173 kts 83°
2026-05-04 14:09 37.44607 14.81502 3459 ft 178 kts 85°
2026-05-04 14:09 37.44718 14.83052 3300 ft 177 kts 87°
2026-05-04 14:10 37.44971 14.86054 3040 ft 170 kts 85°
2026-05-04 14:10 37.45092 14.87516 2881 ft 169 kts 86°
2026-05-04 14:10 37.45211 14.88984 2635 ft 165 kts 85°
2026-05-04 14:10 37.45321 14.90403 2412 ft 164 kts 87°
2026-05-04 14:11 37.45431 14.91812 2201 ft 167 kts 85°
2026-05-04 14:11 37.45689 14.94727 1755 ft 167 kts 86°
2026-05-04 14:11 37.45796 14.96151 1547 ft 165 kts 86°
2026-05-04 14:12 37.45937 14.97563 1301 ft 160 kts 86°
2026-05-04 14:12 37.46033 14.98927 1118 ft 158 kts 88°
2026-05-04 14:12 37.46252 15.01572 701 ft 148 kts 85°
2026-05-04 14:13 37.46368 15.02883 507 ft 151 kts 86°
2026-05-04 14:13 37.46473 15.04195 285 ft 149 kts 84°
2026-05-04 14:13 37.46580 15.05482 91 ft 147 kts 84°
2026-05-04 14:13 37.46685 15.06681 35 ft 122 kts 83°
2026-05-04 14:14 37.46747 15.07401 32 ft 28 kts 84°
2026-05-04 14:14 37.46846 15.07750 29 ft 19 kts 58°
2026-05-04 14:14 37.46934 15.07765 29 ft 12 kts 294°
2026-05-04 14:15 37.46918 15.07556 32 ft 12 kts 264°
2026-05-04 14:15 37.46897 15.07306 33 ft 17 kts 264°
2026-05-04 14:16 37.46886 15.06972 31 ft 22 kts 269°
2026-05-04 14:16 37.46883 15.06775 32 ft 22 kts 268°
2026-05-04 14:17 37.46937 15.06527 31 ft 7 kts 355°
2026-05-04 14:17 37.46945 15.06528 31 ft 0 kts 15°